Погода в Агвали

Россия / Республика Дагестан     42°32′27″N   46°07′20″E
темп.,
°C
ветер,
м/с
пор.,
м/с
влажн.,
%
обл.,
%
осадки,
мм/ч
давл.,
гПа
погр.,
м
23 апреля, пт
пт2300:00+5ююз239130 1.5 1017112
03:00+3юз239430 2.3 1018101
06:00+1сз229783 0.9 1021210
09:00+2ссз2298100 3.3 1021234
12:00+2с339288 1.6 1023431
15:00+5с226424 1.6 1021745
18:00+4ссв117542 0.0 1022184
21:00+1ююз456595 0.0 102481
24 апреля, сб
сб2400:000ююз56623 0.0 102497
03:000ююз677019 0.0 1022129
06:00+1ююз568552 0.0 1021201
09:00+7ююз56595 0.0 1017694
12:00+12юз36391 0.0 10151699
15:00+11з14453 0.0 10151347
18:00+7с217614 0.0 1018164
21:00+3ююз227827 0.0 102040
25 апреля, вс
вс2500:00+2ююз22758 0.0 102035
03:00+2ююз33755 0.0 102042
06:00+3ююз337796 0.0 102079
09:00+11ююз245186 0.0 1016944
12:00+14ююз274023 0.0 10142033
15:00+14ююз283652 0.0 10131986
18:00+10ююз236099 0.0 1014144
21:00+6ююз558398 0.0 1016148
26 апреля, пн
пн2600:00+5ююз56825 0.0 1014179
03:00+4ююз5691100 0.0 1014164
06:00+5ююз568612 0.0 1013186
09:00+13ююз575417 0.0 10091011
12:00+17ююз5113810 0.0 10062301
15:00+14ююз595027 1.1 10061468
18:00+9ю568098 2.1 1009450
21:00+7ююз458598 2.8 100999
27 апреля, вт
вт2700:00+6юз238971 0.0 101180
03:00+5ююз3492100 0.4 101093
06:00+6сз1193100 0.8 1011126
09:00+4с3294100 6.7 1014287
12:00+7ссв2284100 2.2 1012420
15:00+6вюв038696 5.0 1012587
18:00+6ююз2390100 1.1 1013348
21:00+5ююз2393100 1.3 1015250